FW6665 Weather Reports


time (UTC)temp
C
wind
direction
speed
KPH
gust
KPH
rain 1hr
cm
rain 24hr
cm
rain mn
cm
humidity
%
barometer
mb
20260508232703 10 133 0.0 0.0 0.00 0.00 0.00 83 1015.9
20260508232205 10 133 0.0 0.0 0.00 0.00 0.00 83 1015.9
20260508231705 10 133 0.0 0.0 0.00 0.00 0.00 83 1016.1
20260508231204 10 133 0.0 0.0 0.00 0.00 0.00 82 1016.0
20260508230705 10 133 0.0 0.0 0.00 0.00 0.00 82 1016.1
20260508230205 10 133 0.0 0.0 0.00 0.00 0.00 82 1016.0
20260508225204 10 133 0.0 0.0 0.00 0.00 0.00 82 1016.0
20260508224206 10 133 0.0 0.0 0.00 0.00 0.00 81 1016.1
20260508223705 10 133 0.0 1.6 0.00 0.00 0.00 81 1016.1
20260508223204 10 133 0.0 1.6 0.00 0.00 0.00 81 1016.0
20260508222705 10 133 0.0 1.6 0.00 0.00 0.00 81 1016.1
20260508222204 10 133 0.0 1.6 0.00 0.00 0.00 80 1015.9
20260508221704 10 133 0.0 1.6 0.00 0.00 0.00 80 1016.0
20260508221204 11 133 0.0 1.6 0.00 0.00 0.00 79 1015.9
20260508220704 11 133 0.0 0.0 0.00 0.00 0.00 79 1016.0
20260508220203 11 133 0.0 1.6 0.00 0.00 0.00 79 1015.9
20260508214704 11 133 0.0 0.0 0.00 0.00 0.00 78 1015.9
20260508214204 11 133 0.0 0.0 0.00 0.00 0.00 77 1015.9
20260508213704 11 133 0.0 0.0 0.00 0.00 0.00 77 1015.9
20260508213205 11 133 0.0 0.0 0.00 0.00 0.00 76 1015.9
20260508212705 11 133 0.0 0.0 0.00 0.00 0.00 76 1015.8
20260508212206 11 133 0.0 0.0 0.00 0.00 0.00 75 1015.8
20260508211704 11 133 0.0 1.6 0.00 0.00 0.00 75 1015.8
20260508211220 11 133 0.0 1.6 0.00 0.00 0.00 74 1015.7
20260508210704 12 133 0.0 1.6 0.00 0.00 0.00 74 1015.7
20260508210204 12 133 0.0 1.6 0.00 0.00 0.00 74 1015.7
20260508205704 12 133 0.0 1.6 0.00 0.00 0.00 73 1015.7
20260508205205 12 133 0.0 1.6 0.00 0.00 0.00 73 1015.6
20260508204704 12 133 0.0 1.6 0.00 0.00 0.00 73 1015.7
20260508204204 12 133 0.0 1.6 0.00 0.00 0.00 72 1015.6
20260508203705 12 133 0.0 1.6 0.00 0.00 0.00 72 1015.6
20260508203204 12 133 0.0 1.6 0.00 0.00 0.00 72 1015.6
20260508202205 12 134 0.0 3.2 0.00 0.00 0.00 72 1015.5
20260508201705 13 134 0.0 3.2 0.00 0.00 0.00 71 1015.5
20260508200704 13 134 0.0 1.6 0.00 0.00 0.00 70 1015.4
20260508200204 13 134 0.0 1.6 0.00 0.00 0.00 70 1015.4
20260508195704 13 134 0.0 1.6 0.00 0.00 0.00 69 1015.3
20260508195204 13 134 0.0 1.6 0.00 0.00 0.00 69 1015.3
20260508194704 13 134 0.0 3.2 0.00 0.00 0.00 69 1015.2
20260508194205 13 134 0.0 3.2 0.00 0.00 0.00 68 1015.2
20260508193704 13 134 0.0 3.2 0.00 0.00 0.00 67 1015.2
20260508193205 14 134 0.0 3.2 0.00 0.00 0.00 66 1015.0
20260508192204 14 134 0.0 3.2 0.00 0.00 0.00 65 1015.0
20260508191204 15 134 0.0 3.2 0.00 0.00 0.00 63 1014.8
20260508190704 15 134 0.0 8.0 0.00 0.00 0.00 62 1014.8
20260508190204 15 134 0.0 8.0 0.00 0.00 0.00 61 1014.8
20260508185704 15 113 1.6 8.0 0.00 0.00 0.00 60 1014.8
20260508185204 15 117 0.0 3.2 0.00 0.00 0.00 60 1014.7
20260508184705 16 117 0.0 1.6 0.00 0.00 0.00 60 1014.7
20260508184207 16 117 0.0 4.8 0.00 0.00 0.00 60 1014.7
20260508183705 16 117 0.0 4.8 0.00 0.00 0.00 60 1014.6
20260508183205 16 117 0.0 4.8 0.00 0.00 0.00 60 1014.6
20260508182704 16 117 1.6 6.4 0.00 0.00 0.00 59 1014.6
20260508182205 16 117 0.0 6.4 0.00 0.00 0.00 59 1014.5
20260508181204 17 110 0.0 3.2 0.00 0.00 0.00 58 1014.4
20260508180704 17 110 1.6 4.8 0.00 0.00 0.00 58 1014.3
20260508180204 17 110 0.0 6.4 0.00 0.00 0.00 58 1014.4
20260508175204 17 110 1.6 4.8 0.00 0.00 0.00 58 1014.3
20260508174704 17 90 0.0 4.8 0.00 0.00 0.00 57 1014.3
20260508174204 18 99 1.6 4.8 0.00 0.00 0.00 57 1014.3
20260508173705 18 94 1.6 4.8 0.00 0.00 0.00 58 1014.2
20260508173204 17 94 0.0 4.8 0.00 0.00 0.00 58 1014.2
20260508172708 17 94 0.0 4.8 0.00 0.00 0.00 58 1014.2
20260508171704 18 86 0.0 3.2 0.00 0.00 0.00 57 1014.2
20260508171204 18 85 1.6 4.8 0.00 0.00 0.00 58 1014.2
20260508170204 18 85 1.6 3.2 0.00 0.00 0.00 57 1014.0
20260508165704 18 83 1.6 4.8 0.00 0.00 0.00 57 1014.0
20260508165204 18 80 1.6 6.4 0.00 0.00 0.00 56 1014.0
20260508163705 18 113 0.0 4.8 0.00 0.00 0.00 56 1013.9
20260508162704 18 113 1.6 8.0 0.00 0.00 0.00 56 1013.9
20260508162204 18 116 1.6 8.0 0.00 0.00 0.00 56 1013.9
20260508161704 18 120 0.0 6.4 0.00 0.00 0.00 56 1013.8
20260508161205 18 120 1.6 6.4 0.00 0.00 0.00 55 1013.9
20260508160704 18 120 0.0 8.0 0.00 0.00 0.00 56 1013.8
20260508160205 18 121 1.6 8.0 0.00 0.00 0.00 56 1013.8
20260508155705 18 94 0.0 9.7 0.00 0.00 0.00 55 1013.8
20260508155205 18 83 3.2 9.7 0.00 0.00 0.00 55 1013.8
20260508154705 18 71 3.2 9.7 0.00 0.00 0.00 55 1013.8
20260508154204 18 107 1.6 6.4 0.00 0.00 0.00 56 1013.8
20260508153704 18 104 1.6 4.8 0.00 0.00 0.00 57 1013.8
20260508153204 18 109 1.6 6.4 0.00 0.00 0.00 56 1013.9
20260508152704 18 106 1.6 6.4 0.00 0.00 0.00 57 1013.9
20260508152205 18 104 0.0 6.4 0.00 0.00 0.00 56 1013.9
20260508151704 18 106 1.6 8.0 0.00 0.00 0.00 57 1013.9
20260508151204 18 106 0.0 8.0 0.00 0.00 0.00 57 1013.9
20260508150705 18 106 0.0 8.0 0.00 0.00 0.00 56 1013.9
20260508150204 18 82 1.6 4.8 0.00 0.00 0.00 56 1014.0
20260508145704 18 82 0.0 6.4 0.00 0.00 0.00 56 1014.0
20260508145204 18 82 1.6 6.4 0.00 0.00 0.00 56 1014.1
20260508144705 19 75 0.0 6.4 0.00 0.00 0.00 56 1013.9
20260508144205 19 100 1.6 8.0 0.00 0.00 0.00 57 1014.0
20260508143705 18 106 1.6 8.0 0.00 0.00 0.00 59 1014.0
20260508143204 18 104 1.6 8.0 0.00 0.00 0.00 57 1014.0
20260508142705 18 104 1.6 8.0 0.00 0.00 0.00 56 1013.9
20260508142205 18 113 3.2 4.8 0.00 0.00 0.00 57 1014.0
20260508141704 18 120 1.6 4.8 0.00 0.00 0.00 58 1014.0
20260508141205 18 118 1.6 4.8 0.00 0.00 0.00 56 1013.9
20260508140704 18 118 1.6 6.4 0.00 0.00 0.00 57 1013.9
20260508140205 18 120 0.0 6.4 0.00 0.00 0.00 59 1013.9
20260508135705 18 121 0.0 6.4 0.00 0.00 0.00 57 1014.0
20260508135204 18 114 0.0 4.8 0.00 0.00 0.00 57 1014.1
20260508134704 18 114 0.0 4.8 0.00 0.00 0.00 57 1014.0
20260508134204 18 114 1.6 3.2 0.00 0.00 0.00 56 1014.2
20260508133203 18 100 1.6 4.8 0.00 0.00 0.00 58 1014.2
20260508132704 18 100 0.0 4.8 0.00 0.00 0.00 58 1014.2
20260508132205 18 100 1.6 4.8 0.00 0.00 0.00 57 1014.2
20260508131704 18 99 0.0 8.0 0.00 0.00 0.00 58 1014.3
20260508131204 18 99 0.0 8.0 0.00 0.00 0.00 58 1014.3
20260508130204 18 99 1.6 3.2 0.00 0.00 0.00 59 1014.2
20260508125706 17 99 1.6 3.2 0.00 0.00 0.00 60 1014.2
20260508124704 17 100 0.0 3.2 0.00 0.00 0.00 61 1014.3
20260508124204 17 100 0.0 3.2 0.00 0.00 0.00 62 1014.3
20260508123704 17 100 1.6 3.2 0.00 0.00 0.00 61 1014.3
20260508123206 17 100 0.0 3.2 0.00 0.00 0.00 61 1014.3
20260508122705 17 100 1.6 4.8 0.00 0.00 0.00 61 1014.4
20260508122205 17 100 0.0 4.8 0.00 0.00 0.00 61 1014.3
20260508121704 17 100 1.6 3.2 0.00 0.00 0.00 59 1014.3
20260508120704 17 100 0.0 4.8 0.00 0.00 0.00 57 1014.5
20260508120205 17 100 1.6 4.8 0.00 0.00 0.00 57 1014.3
20260508115205 17 104 0.0 3.2 0.00 0.00 0.00 55 1014.4
20260508114705 17 104 0.0 6.4 0.00 0.00 0.00 56 1014.3
20260508114205 17 104 0.0 6.4 0.00 0.00 0.00 56 1014.3
20260508113205 17 104 1.6 8.0 0.00 0.00 0.00 56 1014.3
20260508112705 17 104 0.0 8.0 0.00 0.00 0.00 59 1014.2
20260508112205 17 104 3.2 4.8 0.00 0.00 0.00 56 1014.1
20260508111204 17 109 1.6 3.2 0.00 0.00 0.00 56 1014.2
20260508110704 17 107 0.0 3.2 0.00 0.00 0.00 58 1014.3
20260508110204 17 107 0.0 6.4 0.00 0.00 0.00 58 1014.4
20260508105205 17 107 1.6 8.0 0.00 0.00 0.00 56 1014.4
20260508104205 17 107 3.2 4.8 0.00 0.00 0.00 55 1014.4
20260508103705 17 100 1.6 4.8 0.00 0.00 0.00 58 1014.3
20260508103205 17 100 0.0 4.8 0.00 0.00 0.00 59 1014.3
20260508102705 17 100 0.0 8.0 0.00 0.00 0.00 60 1014.4
20260508101705 17 103 3.2 8.0 0.00 0.00 0.00 57 1014.4
20260508101204 17 103 4.8 8.0 0.00 0.00 0.00 56 1014.4
20260508100704 18 94 3.2 8.0 0.00 0.00 0.00 57 1014.5
20260508100205 18 116 1.6 8.0 0.00 0.00 0.00 56 1014.4
20260508095705 18 118 3.2 6.4 0.00 0.00 0.00 57 1014.4
20260508095204 18 106 0.0 4.8 0.00 0.00 0.00 59 1014.3
20260508094704 18 106 1.6 4.8 0.00 0.00 0.00 59 1014.4
20260508093704 17 107 1.6 8.0 0.00 0.00 0.00 62 1014.4
20260508093204 17 109 3.2 9.7 0.00 0.00 0.00 61 1014.4
20260508092704 17 114 3.2 9.7 0.00 0.00 0.00 62 1014.4
20260508092210 17 117 3.2 9.7 0.00 0.00 0.00 62 1014.4
20260508091704 17 118 3.2 11.3 0.00 0.00 0.00 63 1014.3
20260508091204 16 133 1.6 11.3 0.00 0.00 0.00 66 1014.5
20260508090705 16 133 1.6 9.7 0.00 0.00 0.00 66 1014.5
20260508090204 16 109 3.2 9.7 0.00 0.00 0.00 68 1014.5
20260508085704 16 114 1.6 9.7 0.00 0.00 0.00 70 1014.4
20260508084705 15 103 1.6 8.0 0.00 0.00 0.00 76 1014.6
20260508084204 14 103 3.2 8.0 0.00 0.00 0.00 77 1014.5
20260508083705 14 109 3.2 6.4 0.00 0.00 0.00 78 1014.6
20260508083203 13 103 0.0 6.4 0.00 0.00 0.00 81 1014.6
20260508082705 13 99 1.6 6.4 0.00 0.00 0.00 81 1014.6
20260508081703 13 93 1.6 4.8 0.00 0.00 0.00 83 1014.5
20260508081204 13 92 1.6 4.8 0.00 0.00 0.00 83 1014.4
20260508080708 12 97 1.6 4.8 0.00 0.00 0.00 82 1014.3
20260508080204 12 96 0.0 3.2 0.00 0.00 0.00 80 1014.3
20260508075204 12 96 0.0 6.4 0.00 0.00 0.00 77 1014.3
20260508074704 11 96 0.0 3.2 0.00 0.00 0.00 77 1014.4
20260508074209 11 94 0.0 3.2 0.00 0.00 0.00 77 1014.4
20260508073704 11 94 0.0 3.2 0.00 0.00 0.00 76 1014.4
20260508073206 11 93 0.0 3.2 0.00 0.00 0.00 74 1014.4
20260508072704 11 93 0.0 3.2 0.00 0.00 0.00 73 1014.4
20260508070204 10 93 0.0 1.6 0.00 0.00 0.00 70 1014.4
20260508065705 10 93 0.0 1.6 0.00 0.00 0.00 71 1014.4
20260508065205 10 93 0.0 1.6 0.00 0.00 0.00 71 1014.4
20260508064704 9 93 0.0 1.6 0.00 0.00 0.00 71 1014.3
20260508064204 9 93 0.0 1.6 0.00 0.00 0.00 72 1014.3
20260508063705 9 93 0.0 1.6 0.00 0.00 0.00 72 1014.2
20260508063204 9 93 0.0 1.6 0.00 0.00 0.00 71 1014.3
20260508062706 9 93 0.0 1.6 0.00 0.00 0.00 71 1014.2
20260508062205 8 94 0.0 1.6 0.00 0.00 0.00 71 1014.2
20260508061704 8 94 0.0 1.6 0.00 0.00 0.00 71 1014.2
20260508060705 8 94 0.0 1.6 0.00 0.00 0.00 72 1014.1
20260508060205 8 94 0.0 1.6 0.00 0.00 0.00 72 1014.2
20260508055704 8 94 0.0 1.6 0.00 0.00 0.00 73 1014.1
20260508055205 8 94 0.0 1.6 0.00 0.00 0.00 73 1014.1
20260508054704 8 94 0.0 1.6 0.00 0.00 0.00 74 1014.1
20260508054207 7 94 0.0 1.6 0.00 0.00 0.00 74 1014.0
20260508053705 7 94 0.0 1.6 0.00 0.00 0.00 74 1013.9
20260508053205 7 94 0.0 1.6 0.00 0.00 0.00 75 1014.0
20260508052704 7 94 0.0 0.0 0.00 0.00 0.00 75 1013.9
20260508052204 7 94 0.0 0.0 0.00 0.00 0.00 74 1013.7
20260508051206 7 94 0.0 0.0 0.00 0.00 0.00 74 1013.8
20260508050704 7 94 0.0 0.0 0.00 0.00 0.00 74 1013.8
20260508050204 7 94 0.0 0.0 0.00 0.00 0.00 75 1013.7
20260508045704 6 94 0.0 0.0 0.00 0.00 0.00 75 1013.7
20260508045204 6 94 0.0 0.0 0.00 0.00 0.00 76 1013.7
20260508044204 6 94 0.0 0.0 0.00 0.00 0.00 78 1013.7
20260508043704 6 94 0.0 0.0 0.00 0.00 0.00 78 1013.6
20260508043204 6 94 0.0 0.0 0.00 0.00 0.00 78 1013.7
20260508042704 6 94 0.0 0.0 0.00 0.00 0.00 78 1013.7
20260508042231 6 94 0.0 0.0 0.00 0.00 0.00 79 1013.6
20260508041705 6 94 0.0 0.0 0.00 0.00 0.00 79 1013.6
20260508041208 6 94 0.0 0.0 0.00 0.00 0.00 79 1013.7
20260508040704 6 94 0.0 0.0 0.00 0.00 0.00 78 1013.7
20260508040205 6 94 0.0 0.0 0.00 0.00 0.00 79 1013.7
20260508035205 6 94 0.0 0.0 0.00 0.00 0.00 80 1013.6
20260508034705 6 94 0.0 0.0 0.00 0.00 0.00 80 1013.6
20260508034203 6 94 0.0 0.0 0.00 0.00 0.00 80 1013.6
20260508033704 6 94 0.0 0.0 0.00 0.00 0.00 80 1013.6
20260508033203 6 94 0.0 0.0 0.00 0.00 0.00 80 1013.6
20260508031704 6 94 0.0 0.0 0.00 0.00 0.00 81 1013.7
20260508031205 6 94 0.0 0.0 0.00 0.00 0.00 81 1013.5
20260508030704 6 94 0.0 0.0 0.00 0.00 0.00 81 1013.7
20260508025705 6 94 0.0 0.0 0.00 0.00 0.00 82 1013.6
20260508025205 6 94 0.0 0.0 0.00 0.00 0.00 82 1013.6
20260508024204 6 94 0.0 0.0 0.00 0.00 0.00 82 1013.6
20260508023705 6 94 0.0 0.0 0.00 0.00 0.00 82 1013.6
20260508023205 6 94 0.0 0.0 0.00 0.00 0.00 83 1013.6
20260508022704 6 94 0.0 0.0 0.00 0.00 0.00 83 1013.6
20260508022204 6 94 0.0 0.0 0.00 0.00 0.00 83 1013.5
20260508021706 6 94 0.0 0.0 0.00 0.00 0.00 83 1013.5
20260508021209 6 94 0.0 0.0 0.00 0.00 0.00 83 1013.5
20260508020704 6 94 0.0 0.0 0.00 0.00 0.00 83 1013.6
20260508015706 6 94 0.0 0.0 0.00 0.00 0.00 84 1013.6
20260508015208 6 94 0.0 0.0 0.00 0.00 0.00 84 1013.7
20260508014704 6 94 0.0 0.0 0.00 0.00 0.00 84 1013.6
20260508013704 6 94 0.0 0.0 0.00 0.00 0.00 84 1013.7
20260508012705 6 94 0.0 0.0 0.00 0.00 0.00 84 1013.7
20260508012205 6 94 0.0 0.0 0.00 0.00 0.00 84 1013.7
20260508011705 7 94 0.0 0.0 0.00 0.00 0.00 84 1013.7
20260508011204 7 94 0.0 0.0 0.00 0.00 0.00 84 1013.7
20260508010704 7 94 0.0 0.0 0.00 0.00 0.00 84 1013.7
20260508010204 7 94 0.0 0.0 0.00 0.00 0.00 84 1013.8
20260508005205 7 94 0.0 0.0 0.00 0.00 0.00 84 1013.7
20260508004704 7 94 0.0 0.0 0.00 0.00 0.00 84 1013.8
20260508004205 7 94 0.0 0.0 0.00 0.00 0.00 84 1013.7
20260508003706 7 94 0.0 0.0 0.00 0.00 0.00 84 1013.9
20260508003205 7 94 0.0 0.0 0.00 0.00 0.00 84 1013.8
20260508002205 8 94 0.0 0.0 0.00 0.00 0.00 84 1013.8
20260508001706 8 94 0.0 0.0 0.00 0.00 0.00 84 1013.9
20260508000704 8 94 0.0 0.0 0.00 0.00 0.00 84 1013.8
20260508000205 8 94 0.0 0.0 0.00 0.00 0.00 84 1013.8
20260507235205 8 94 0.0 0.0 0.00 0.00 0.00 84 1013.8
20260507234705 8 94 0.0 0.0 0.00 0.00 0.00 84 1013.8
20260507234207 8 94 0.0 0.0 0.00 0.00 0.00 83 1013.9
20260507233708 9 94 0.0 0.0 0.00 0.00 0.00 83 1013.9